User: anonymous   Login
Location: Wawayanda State Park
(41.1833°N, 74.4333°W)
Time: 14:03:38
(UTC-05:00)
Language:

RESURS DK-1 - Orbit

View from above orbital plane
View from above orbital plane
View from above satellite
View from above satellite

Ground track
Ground track

The orbit data is extracted from the following two-line orbital elements,

1 29228U 06021A   17057.50030489  .00000250  00000-0  26417-4 0  9992
2 29228  69.9365  19.6754 0004280 193.1234 166.9816 15.02097574591486
Epoch (UTC): 26 February 2017 12:00:26
Eccentricity: 0.0004280
inclination: 69.9365°
perigee height: 557 km
apogee height: 563 km
right ascension of ascending node: 19.6754°
argument of perigee: 193.1234°
revolutions per day: 15.02097574
mean anomaly at epoch: 166.9816°
orbit number at epoch: 59148

The dashed part of the orbit path shows where the satellite is in the earth's shadow,  

DLR